Regional Weather Roundup
Issued by NWS Mobile, AL

Home | Current Version | Previous Version | Text Only | Print | Product List | Glossary On
Versions: 1 2 3 4 5 6 7 8 9 10 11 12 13 14 15 16 17 18 19 20 21 22 23 24 25 26 27 28 29 30 31 32 33 34 35 36 37 38 39 40 41 42 43 44 45 46 47 48 49 50
000
ASUS44 KMOB 250313
RWRMOB
REGIONAL WEATHER ROUNDUP
NATIONAL WEATHER SERVICE MOBILE AL
1000 PM CDT SUN SEP 24 2017

NOTE: "FAIR" INDICATES FEW OR NO CLOUDS BELOW 12,000 FEET WITH NO
      SIGNIFICANT WEATHER AND/OR OBSTRUCTIONS TO VISIBILITY.

  * THESE STATIONS ARE PART OF THE UNIVERSITY OF SOUTH ALABAMA
    MESONET AND ARE NOT UNDER NWS OR FAA QUALITY CONTROL.

ALZ061>064-250400-
COASTAL ALABAMA

CITY           SKY/WX    TMP DP  RH WIND       PRES   REMARKS
MOBILE REG APT PTCLDY    74  70  87 E3        29.95S
BROOKLEY FIELD PTCLDY    79  72  79 E15       29.95S
USA CAMPUS*    NOT AVBL
DOG RIVER*     NOT AVBL


CITY           SKY/WX    TMP DP  RH WIND       PRES   REMARKS
GULF SHORES    CLOUDY    76  71  83 E6        29.93F

$$

ALZ051>060-250400-
INTERIOR SOUTHWEST AND SOUTH CENTRAL ALABAMA

CITY           SKY/WX    TMP DP  RH WIND       PRES   REMARKS
GREENVILLE     CLOUDY    74  68  81 N3        29.96S
EVERGREEN      CLOUDY    73  71  93 CALM      29.96R
ATMORE*          N/A    N/A N/A N/A CALM      31.47R
ANDALUSIA/OPP  PTCLDY    78  68  71 CALM      29.94F
ANDALUSIA*       N/A     75  68  78 N3        29.95S
FLORALA APT    NOT AVBL
FLORALA*         N/A     72  72 100 CALM      30.61S

$$

FLZ001>006-250400-
WESTERN FLORIDA PANHANDLE

CITY           SKY/WX    TMP DP  RH WIND       PRES   REMARKS
PENSACOLA      CLOUDY    78  70  76 E3        29.93F
NAS PENSACOLA  CLOUDY    76  70  82 E5        29.93S
MILTON         CLOUDY    73  72  96 NE3       29.94S
WHTNG S FIELD  CLOUDY    78  73  84 NE5       29.94S


CITY           SKY/WX    TMP DP  RH WIND       PRES   REMARKS
JAY*             N/A     73  68  83 CALM      29.95S
DUKE FIELD     CLOUDY    74  72  95 CALM      29.94R
CRESTVIEW      CLOUDY    73  72  96 CALM      29.95S FOG
VALPARAISO     MOCLDY    74  72  93 N3        29.93S
DESTIN         CLOUDY    77  72  84 CALM      29.93S

$$

MSZ076-079-250400-
INTERIOR SOUTHEAST MISSISSIPPI

CITY           SKY/WX    TMP DP  RH WIND       PRES   REMARKS
LEAKESVILLE*   NOT AVBL
AGRICOLA*        N/A     70  70 100 CALM      29.94S

$$

MARINE OBSERVATIONS

STATION/POSITION TIME  TEMP    WIND        PRES    WAVE
                       AIR SEA DIR/SP/G            HT/PER
                 (UTC) (F)     (DEG/KT/KT) (MB)    (FT/S)
PASCAGOULA       0236   75      30/  4/  5 1013.4R
PETIT BOIS ISLND 0236   79      70/ 11/ 14 1014.0S
GRAND BAY        0130   75      10/  3     1014.0S
KATRINA CUT      0230   80      80/ 13     1013.5S
CEDAR POINT      0230   80      80/ 10     1013.5S
E DAUPHIN ISLAND 0200   80      60/  7/  9 1013.3R
MIDDLE BAY LIGHT 0230   79      70/ 11     1013.9R
USCG MOBILE BAY  0236   78 83   90/  7/  9 1013.8R
STATE DOCKS      0236   77 82              1013.8R
MEAHER PARK      0230   74      60/  3     1013.9R
WEEKS BAY        0145   75                 1013.0S
FORT MORGAN      0236   78      90/  8/ 10   N/A
12 S ORANGE BCH  0250   79 82   80/ 17/ 21 1012.8R   3/ 5
PENSACOLA BAY    0236   78 83              1013.8F
64 S DAUPHIN ISL 0300   80 82   60/ 16/ 19 1012.5
67 S FORT MORGAN 0230   78      50/ 16     1012.2F

$$

SELECTED LOCATIONS ACROSS THE REGION

CITY           SKY/WX    TMP DP  RH WIND       PRES   REMARKS
NEW ORLEANS    PTCLDY    79  70  74 E12       29.91F
GULFPORT       CLEAR     72  70  93 N5        29.92S
PASCAGOULA AP  MOCLDY    71  68  90 CALM      29.93S
PASCAGOULA*      N/A     50  50 100 CALM        N/A
HATTIESBURG    CLEAR     70  70 100 CALM      29.96F
LAUREL         CLEAR     67  67 100 CALM      29.96F
MERIDIAN       CLEAR     72  70  93 CALM      29.97S
JACKSON        CLEAR     71  68  90 CALM      29.95F
MONTGOMERY     MOCLDY    76  67  73 CALM      29.97R
TROY           PTCLDY    70  70 100 CALM      29.97S
ASHFORD*         N/A     75  68  78 N3        29.95S
DOTHAN         PTCLDY    71  69  93 NE7       29.98S
PANAMA CITY    CLOUDY    73  71  93 CALM      29.92R

$$




USA.gov is the U.S. government's official web portal to all federal, state and local government web resources and services.